Regional Weather Roundup
Issued by NWS

Home | Current Version | Previous Version | Graphics & Text | Print | Product List | Glossary On
Versions: 1 2 3 4 5 6 7 8 9 10 11 12 13 14 15 16 17 18 19 20 21 22 23 24 25 26 27 28 29 30 31 32 33 34 35 36 37 38 39 40 41 42 43 44 45 46 47 48 49 50
000
ASUS43 KLMK 250710
RWRKY
KENTUCKY REGIONAL WEATHER ROUNDUP
NATIONAL WEATHER SERVICE LOUISVILLE KY
200 AM EST THU DEC 25 2014

NOTE "FAIR" INDICATES FEW OR NO CLOUDS BELOW 12,000 FEET
WITH NO SIGNIFICANT WEATHER AND/OR OBSTRUCTIONS TO VISIBILITY.

KYZ001>023-026-027-061>063-070>075-250800-
WESTERN AND SOUTH CENTRAL KENTUCKY

CITY           SKY/WX    TMP DP  RH WIND       PRES   REMARKS
PADUCAH        CLOUDY    40  34  79 W10       29.94R WCI  33
HENDERSON      CLOUDY    39  34  81 W9        29.91R WCI  33
OWENSBORO      CLOUDY    39  36  89 W10       29.91R WCI  32
HOPKINSVILLE   CLOUDY    40  36  86 W10       29.94R WCI  33
BOWLING GREEN  CLOUDY    41  35  79 SW9       29.92R
GLASGOW        CLOUDY    39  36  86 SW13      29.91R WCI  32
$$

KYZ024-025-028>034-038-045-046-053-250800-
NORTH CENTRAL KENTUCKY

CITY           SKY/WX    TMP DP  RH WIND       PRES   REMARKS
LOUISVILLE/SDF MOCLDY    40  34  79 W12       29.85R WCI  33
LOUISVILLE/LOU CLOUDY    40  33  76 W10       29.85R WCI  33
FORT KNOX      CLOUDY    38  34  84 SW12      29.84R WCI  31
$$

KYZ035>037-039>044-047>052-055>060-089>105-250800-
NORTHEAST KENTUCKY

CITY           SKY/WX    TMP DP  RH WIND       PRES   REMARKS
LEXINGTON      CLOUDY    39  35  86 SW13G23   29.82R WCI  31
COVINGTON      CLOUDY    38  32  79 W9G18     29.77R WCI  31
FRANKFORT      CLOUDY    39  35  86 W7        29.83R WCI  34
$$

KYZ054-064>069-076>088-106>120-250800-
SOUTHEAST KENTUCKY

CITY           SKY/WX    TMP DP  RH WIND       PRES   REMARKS
JACKSON        CLOUDY    40  36  86 VRB5      29.82R
LONDON         CLOUDY    40  33  76 SW9       29.87R WCI  34
SOMERSET       CLOUDY    37  32  81 W16G23    29.91R WCI  28
MIDDLESBORO    CLOUDY    40  35  80 W5        29.88R
MONTICELLO     CLOUDY    40  36  86 W10       29.93R WCI  33
$$



USA.gov is the U.S. government's official web portal to all federal, state and local government web resources and services.